Weather History for PHOG - February, 2012

Change the Weather History Date:

Monday, February 6, 2012

  Actual Average Record
Temperature  
Mean Temperature 72 °F 72 °F  
Max Temperature 83 °F 81 °F 88 °F (1996)
Min Temperature 60 °F 63 °F 53 °F (1973)
Degree Days  
Heating Degree Days 0 0  
Month to date heating degree days 0 0  
Since 1 July heating degree days 0 0  
Cooling Degree Days 7 7  
Month to date cooling degree days 42 42  
Year to date cooling degree days 293 259  
Growing Degree Days 21 (Base 50)    
Moisture  
Dew Point 58 °F    
Average Humidity 67    
Maximum Humidity 87    
Minimum Humidity 47    
Precipitation  
Precipitation 0.00 in 0.07 in 1.34 in (1976)
Month to date precipitation 0.00 0.45  
Year to date precipitation 0.00 3.32  
Snow  
Snow 0.00 in - - ()
Month to date snowfall 0.0  
Since 1 July snowfall 0.0  
Snow Depth 0.00 in    
Sea Level Pressure  
Sea Level Pressure 29.91 in    
Wind  
Wind Speed 7 mph (South)    
Max Wind Speed 25 mph    
Max Gust Speed 30 mph    
Visibility 10 miles    
Events Rain    
T = Trace of Precipitation, MM = Missing Value Source: NWS Daily Summary

Daily Weather History Graph

Daily Weather History Graph

Search for Another Location

Airport or City:

Trip Planner

Search our weather history database for the weather conditions in past years. The results will help you decide how hot, cold, wet, or windy it might be!

Date:

Astronomy

Feb. 06, 2012 Rise Set
Actual Time 7:00 AM HST 6:19 PM HST
Civil Twilight 6:37 AM HST 6:42 PM HST
Nautical Twilight 6:11 AM HST 7:08 PM HST
Astronomical Twilight 5:45 AM HST 7:34 PM HST
Moon 5:34 PM HST (2/6) 5:56 AM HST (2/6)
Length of Visible Light 12h 04m
Length of Day
11h 18m
Waxing Gibbous, 99% of the Moon is Illuminated
Feb 6
Waxing Gibbous
Feb 7
Full
Feb 14
Last Quarter
Feb 21
New
Feb 29
First Quarter

Hourly Weather History & Observations

Time (HST) Temp. Heat Index Dew Point Humidity Pressure Visibility Wind Dir Wind Speed Gust Speed Precip Events Conditions
12:54 AM 64.9 °F - 60.1 °F 84% 29.94 in 10.0 mi Calm Calm - N/A   Clear
1:54 AM 63.0 °F - 57.0 °F 81% 29.92 in 10.0 mi Calm Calm - N/A   Clear
2:54 AM 61.0 °F - 55.0 °F 81% 29.90 in 10.0 mi Calm Calm - N/A   Clear
3:54 AM 61.0 °F - 54.0 °F 78% 29.89 in 10.0 mi SE 6.9 mph - N/A   Clear
4:54 AM 61.0 °F - 52.0 °F 72% 29.89 in 10.0 mi SSE 4.6 mph - N/A   Clear
5:54 AM 60.1 °F - 48.9 °F 67% 29.91 in 10.0 mi SE 3.5 mph - N/A   Partly Cloudy
6:54 AM 61.0 °F - 48.0 °F 62% 29.93 in 10.0 mi SSE 3.5 mph - N/A   Partly Cloudy
7:54 AM 64.0 °F - 45.0 °F 50% 29.94 in 10.0 mi Calm Calm - N/A   Partly Cloudy
8:54 AM 73.0 °F - 54.0 °F 51% 29.96 in 10.0 mi Calm Calm - N/A   Clear
9:54 AM 75.9 °F - 63.0 °F 64% 29.96 in 10.0 mi SSW 9.2 mph - N/A   Partly Cloudy
10:54 AM 80.1 °F 81.7 °F 64.0 °F 58% 29.95 in 10.0 mi SSW 13.8 mph - N/A   Partly Cloudy
11:54 AM 81.0 °F 82.2 °F 63.0 °F 54% 29.93 in 10.0 mi South 19.6 mph - N/A   Partly Cloudy
12:54 PM 82.0 °F 83.1 °F 63.0 °F 52% 29.91 in 10.0 mi SSW 18.4 mph 26.5 mph N/A   Scattered Clouds
1:54 PM 82.0 °F 82.7 °F 61.0 °F 49% 29.88 in 10.0 mi SSW 21.9 mph 29.9 mph N/A   Partly Cloudy
2:54 PM 81.0 °F 81.9 °F 62.1 °F 52% 29.87 in 10.0 mi Variable 4.6 mph - N/A   Scattered Clouds
3:54 PM 81.0 °F 81.1 °F 57.9 °F 45% 29.87 in 10.0 mi SSW 18.4 mph - N/A   Partly Cloudy
4:54 PM 78.1 °F - 60.1 °F 54% 29.88 in 10.0 mi SSW 19.6 mph 24.2 mph N/A   Clear
5:54 PM 75.9 °F - 60.1 °F 58% 29.89 in 10.0 mi SSW 12.7 mph - N/A   Partly Cloudy
6:54 PM 73.9 °F - 61.0 °F 64% 29.90 in 10.0 mi SSW 11.5 mph - N/A   Partly Cloudy
7:54 PM 73.9 °F - 62.1 °F 66% 29.92 in 10.0 mi SSW 15.0 mph - N/A   Partly Cloudy
8:54 PM 72.0 °F - 63.0 °F 73% 29.93 in 10.0 mi South 12.7 mph - N/A   Clear
9:54 PM 72.0 °F - 64.0 °F 76% 29.93 in 10.0 mi South 13.8 mph - N/A   Partly Cloudy
10:54 PM 71.1 °F - 63.0 °F 75% 29.93 in 10.0 mi South 12.7 mph - N/A Rain Light Rain
11:54 PM 71.1 °F - 60.1 °F 68% 29.93 in 10.0 mi South 12.7 mph - N/A   Scattered Clouds